Terminal Aerodrome Forecast
Issued by NWS Milwaukee/Sullivan, WI

Home | Current Version | Previous Version | Text Only | Print | Product List | Glossary On
Versions: 1 2 3 4 5 6 7 8 9 10 11 12 13 14 15 16 17 18 19 20 21 22 23 24 25 26 27 28 29 30 31 32 33 34 35 36 37 38 39 40 41 42 43 44 45 46 47 48 49 50
165
FTUS43 KMKX 141903 AAA
TAFMKE
TAF AMD
KMKE 141903Z 1419/1524 15014G21KT 2SM -SN OVC025
      TEMPO 1419/1423 1SM -SN OVC020
     FM150600 17009KT 5SM -SN OVC020
     FM151000 19007KT P6SM OVC015
     FM151700 24007KT P6SM OVC015=

USA.gov is the U.S. government's official web portal to all federal, state and local government web resources and services.